Regional Weather Roundup
Issued by NWS

Home | Current Version | Previous Version | Text Only | Print | Product List | Glossary On
Versions: 1 2 3 4 5 6 7 8 9 10 11 12 13 14 15 16 17 18 19 20 21 22 23 24 25 26 27 28 29 30 31 32 33 34 35 36 37 38 39 40 41 42 43 44 45 46 47 48 49 50
000
ASUS42 KFFC 020910
RWRGA
WEATHER ROUNDUP FOR GEORGIA
NATIONAL WEATHER SERVICE PEACHTREE CITY GA
500 AM EDT SUN AUG 02 2015

NOTE: "FAIR" INDICATES FEW OR NO CLOUDS BELOW 12,000 FEET WITH NO
SIGNIFICANT WEATHER AND/OR OBSTRUCTIONS TO VISIBILITY.

* = USE WITH CAUTION. THE STATIONS MARKED WITH AN ASTERISK MAY NOT
REPORT WEATHER SUCH AS PRECIPITATION, FOG, OR THUNDER AND ARE NOT
QUALITY CONTROLLED BY NWS.

THE REMARK "TC" DENOTES TEMPERATURE READING IN DEGREES CELSIUS.

GAZ001>058-021000-
NORTH GEORGIA

CITY           SKY/WX    TMP DP  RH WIND       PRES   REMARKS
ATLANTA        PTCLDY    76  59  55 N3        29.93S
ATHENS         CLEAR     70  63  78 N5        29.92F
CHAMBLEE       CLEAR     69  61  75 N3        29.93S
PEACHTREE CITY CLEAR     68  66  93 CALM      29.93S
ROME           CLEAR     65  62  90 CALM      29.94S
WEST ATLANTA   CLEAR     68  63  84 CALM      29.93S
GAINESVILLE    CLEAR     69  61  75 CALM      29.98S
CARTERSVILLE   CLEAR     63  60  90 CALM      29.95S


CITY           SKY/WX    TMP DP  RH WIND       PRES   REMARKS
DALTON*        CLEAR     63  63 100 CALM      29.95S
MARIETTA       CLEAR     69  62  78 N2        29.94S
BLAIRSVILLE*     N/A     58  51  77 CALM      30.02F
$$

GAZ059>098-102>109-021000-
CENTRAL GEORGIA

CITY           SKY/WX    TMP DP  RH WIND       PRES   REMARKS
AUGUSTA-BUSH   CLEAR     72  71  97 CALM      29.90R
AUGUSTA-DANIEL CLOUDY    76  72  87 CALM      29.91S
COLUMBUS       CLEAR     75  69  81 N3        29.88S
MACON          CLEAR     72  70  93 CALM      29.89R
ROBINS AFB     PTCLDY    73  72  94 CALM      29.88S


CITY           SKY/WX    TMP DP  RH WIND       PRES   REMARKS
LAGRANGE*      CLEAR     72  72 100 NW3       29.91S
SYLVANIA*      FOG       75  75 100 CALM      29.90S VSB 3/4
MILLEDGEVILLE* CLOUDY    77  72  83 CALM      29.90S
$$

GAZ099>101-110>166-021000-
SOUTH GEORGIA

CITY           SKY/WX    TMP DP  RH WIND       PRES   REMARKS
SAVANNAH       PTCLDY    76  73  91 CALM      29.89F
VALDOSTA       CLOUDY    77  76  96 SE6       29.85S
ALMA           CLOUDY    76  75  97 SE3       29.87F FOG
ST SIMONS      MOCLDY    77  73  87 S8        29.88F
ALBANY         CLOUDY    75  73  93 E6        29.87S
HUNTER AFB     MOCLDY    77  77 100 S2        29.87S
MOODY AFB      CLOUDY    75  73  94 E6        29.84S
BRUNSWICK      CLOUDY    79  73  83 S8        29.89F


CITY           SKY/WX    TMP DP  RH WIND       PRES   REMARKS
BAINBRIDGE*    MOCLDY    77  73  88 NE6       29.84S
MOULTRIE*      CLOUDY    75  73  94 E3        29.85F
VIDALIA*       FOG       73  73 100 CALM      29.89R VSB 1/4
WAYCROSS*      CLOUDY    79  78  95 S5        29.87F
DOUGLAS*       CLOUDY    77  75  94 CALM      29.88F
$$


USA.gov is the U.S. government's official web portal to all federal, state and local government web resources and services.